Tracking 30743 objects as of 23-Jun-2025
HD Live streaming from Space Station
objects crossing your sky now

FENGYUN 1C DEB

Track FENGYUN 1C DEB now!
10-day predictions


NORAD ID: 31327
Int'l Code: 1999-025BQF
Perigee: 496.8 km
Apogee: 635.4 km
Inclination: 99.0 °
Period: 95.8 minutes
Semi major axis: 6937 km
RCS: 0.0089 m2 (small)
Launch date: May 10, 1999
Source: People's Republic of China (PRC)
Launch site: Taiyaun Space Center, China (TSC)

Note: This is SATELLITE DEBRIS
Your satellite tracking list
Your tracking list is empty




NASA's NSSDC Master Catalog

Two Line Element Set (TLE):
1 31327U 99025BQF 25173.66678323  .00007463  00000-0  50903-3 0  9990
2 31327  98.9752 146.6729 0099926 215.5878 143.8653 15.02567194975140
Source of the keplerian elements: AFSPC